Orbital Elements at Epoch 2459200.5 (2020-Dec-17.0) TDB
Reference: JPL 27 (heliocentric ecliptic J2000)
Element | Value | Uncertainty (1-sigma) | Units |
e | .1432781264548513 | 1.6287e-08 | |
a | 2.587851880156393 | 8.1782e-09 | au |
q | 2.21706931122492 | 4.0939e-08 | au |
i | 14.33325070801473 | 5.6231e-07 | deg |
node | 200.9371919577556 | 1.8538e-06 | deg |
peri | 71.67041922409956 | 9.8143e-06 | deg |
M | 101.648341494948 | 7.7161e-06 | deg |
tp | 2458771.156051607575 (2019-Oct-14.65605161) | 3.2023e-05 | TDB |
period | 1520.5739626254 4.16 | 7.2081e-06 1.973e-08 | d yr |
n | .236752705786458 | 1.1223e-09 | deg/d |
Q | 2.958634449087865 | 9.35e-09 | au |
|
| | Orbit Determination Parameters
Additional Information
|